Theta_e
324 323 323 323 323 322 322 320 319 319 319 319 318 318 315 311 310 310 309 309 309 308 309 309 309 308 307 307 307 307 306 306 306 307 306 306 305 304 304 303 303 303 304 307 308 309 310 312 314 316 319 323 326 328 329 330 330 330 330 330 330 329 328 328 328 328 328 328 328 328 328 328 328 327 325 325 326 325 325 324 323 323 323 323 323
324 323 321 321 321 322 321 320 320 319 319 319 318 318 315 311 310 310 309 309 309 308 307 307 307 307 307 306 306 306 306 306 306 306 306 306 305 305 305 304 303 303 303 305 307 307 309 311 312 313 316 321 325 326 327 328 329 330 329 330 330 330 330 329 329 329 328 328 328 328 329 328 328 328 327 326 325 325 325 325 324 323 323 323 324
324 323 321 320 320 320 321 320 320 319 319 319 318 318 315 312 310 309 309 309 309 308 307 307 307 307 306 306 306 307 307 307 306 306 306 306 306 306 305 304 304 303 304 304 306 307 309 310 311 313 315 319 323 325 326 327 328 328 328 328 329 329 330 330 330 330 330 330 329 329 330 329 328 328 328 327 326 327 326 325 326 325 324 324 324
325 323 322 320 319 319 320 320 320 319 319 319 318 318 316 313 311 310 309 309 308 308 307 308 307 306 307 307 307 307 307 307 307 307 307 306 306 306 306 305 304 304 304 305 306 307 309 310 310 311 313 317 319 321 322 324 325 326 326 327 327 328 328 328 329 330 330 330 330 330 330 329 328 328 328 328 327 327 327 327 327 326 325 325 325
323 323 322 321 320 319 320 320 321 320 320 319 318 318 316 313 312 311 309 309 309 308 308 308 308 307 307 308 308 308 308 308 307 307 307 307 307 307 306 305 305 304 305 306 307 307 308 309 309 310 311 312 314 315 316 318 320 322 322 323 324 325 327 327 327 328 328 329 330 330 330 329 329 328 328 329 329 328 328 328 328 327 327 327 327
322 322 322 322 321 320 320 320 321 321 320 319 318 318 316 314 313 312 310 309 309 308 309 309 308 308 308 308 308 308 308 308 308 308 308 308 307 307 307 306 305 305 305 306 307 307 307 308 308 308 308 309 309 310 310 311 312 314 316 317 318 320 323 323 324 326 326 327 327 329 329 328 328 329 328 329 328 328 329 329 328 328 328 328 327
320 321 322 322 321 319 320 320 320 320 319 319 318 318 317 315 314 313 310 309 310 309 309 309 309 308 308 309 308 308 308 308 308 308 308 308 308 307 307 306 306 305 305 305 306 307 307 307 307 307 307 308 308 308 308 308 308 309 310 311 312 314 317 320 322 324 324 325 326 327 327 327 328 328 328 328 329 328 328 328 328 328 328 328 328
316 318 319 320 321 320 319 320 320 320 319 319 318 318 318 315 314 313 311 309 310 310 309 309 309 309 309 309 309 309 308 309 309 309 308 308 308 308 307 307 306 306 305 304 304 304 305 305 305 305 305 305 306 306 307 307 307 307 308 309 309 311 313 316 319 320 322 323 324 325 325 325 326 327 327 327 328 328 327 327 328 328 328 328 327
314 315 317 319 319 320 320 320 320 320 319 318 318 318 318 315 314 313 311 309 310 310 310 310 309 309 309 309 309 309 309 309 309 309 309 308 308 308 307 307 307 306 306 305 305 304 304 305 304 305 304 304 304 304 304 304 304 305 305 306 307 308 310 313 315 317 318 319 320 321 322 323 324 325 325 325 326 327 327 327 327 327 327 328 328
313 313 314 317 319 319 319 319 319 319 319 318 318 318 318 316 314 314 313 310 310 310 310 310 309 309 309 309 309 309 309 309 310 309 309 309 309 308 308 307 307 306 306 306 305 305 305 305 305 305 305 305 305 305 304 304 304 304 304 304 304 305 306 307 309 311 312 314 315 315 317 318 319 321 322 322 323 324 325 325 324 325 325 326 326
312 312 312 314 317 319 320 319 319 319 318 319 318 318 318 317 315 315 314 312 310 310 310 310 309 309 309 309 309 310 310 310 310 310 310 310 309 309 308 308 307 307 306 306 306 305 305 305 305 305 305 305 305 304 304 305 305 305 305 304 304 304 304 304 305 305 306 307 308 309 310 311 313 316 317 318 319 321 322 322 322 322 322 321 322
312 312 312 312 314 317 319 319 319 318 319 319 319 318 318 317 316 316 315 314 312 311 311 310 310 309 309 309 309 310 310 310 310 310 310 310 310 309 309 308 308 307 307 306 306 306 305 306 306 306 305 305 305 305 305 305 305 305 305 305 305 305 304 304 304 304 304 304 305 305 306 306 307 309 311 312 314 316 318 318 319 320 320 319 319
312 312 311 311 313 315 317 319 319 319 319 319 319 318 318 318 317 316 317 316 314 312 311 311 311 310 309 309 309 309 310 310 310 311 311 311 311 310 309 309 308 308 307 307 306 306 306 306 306 306 306 305 305 305 305 305 305 305 305 305 305 305 304 304 304 304 303 303 304 304 304 304 304 305 305 307 308 311 314 316 316 317 317 318 317
312 312 312 312 313 315 317 318 319 319 319 319 319 319 318 318 318 317 316 316 316 314 312 311 311 311 310 309 309 309 310 310 311 311 311 311 311 311 311 310 309 308 308 307 307 307 306 306 306 306 306 306 305 305 305 305 305 305 305 305 305 305 304 304 304 304 304 303 303 303 303 303 303 303 303 303 304 305 309 312 313 313 313 314 315
312 312 313 313 314 316 317 317 318 319 319 319 319 319 319 318 318 317 316 316 316 315 314 312 311 312 311 310 309 309 309 310 310 311 311 311 311 311 311 311 311 310 308 308 307 307 307 306 306 306 306 306 305 305 305 305 305 305 305 305 305 305 304 304 304 304 303 303 303 303 303 302 302 302 302 302 302 302 303 305 307 309 310 311 313
314 313 313 313 314 316 316 317 318 318 318 318 319 318 319 318 318 318 317 316 316 316 315 314 312 311 312 311 310 310 309 309 310 311 311 312 312 312 311 311 311 311 310 309 308 307 307 307 307 307 306 306 306 305 305 305 305 305 304 304 305 305 304 304 303 303 303 303 303 303 303 303 302 302 302 302 302 302 302 302 303 306 309 311 312
316 315 314 314 314 314 315 317 317 318 318 318 318 319 318 319 318 318 317 317 316 316 316 315 313 313 312 312 312 311 310 310 310 310 311 311 312 312 312 312 312 312 312 310 309 308 308 307 307 307 306 306 306 306 305 305 304 304 304 304 304 304 304 303 303 303 303 302 302 302 302 302 302 302 302 302 302 302 302 302 302 303 307 309 311
315 316 316 315 315 315 315 316 316 317 318 318 318 319 319 319 318 318 318 318 317 316 316 315 314 313 313 313 313 312 312 311 310 310 311 311 312 312 312 312 312 313 313 312 311 309 309 308 307 307 307 306 306 306 305 305 304 304 304 304 304 304 304 303 303 303 302 302 302 302 302 302 301 301 301 301 301 302 301 302 303 304 304 305 308
312 314 316 317 317 317 316 316 317 317 318 318 318 318 319 319 319 318 319 318 317 316 315 315 315 314 313 313 313 314 314 313 312 311 311 311 312 312 312 312 312 313 313 313 312 311 310 308 308 307 307 306 306 306 306 305 304 304 304 304 304 304 303 303 303 302 302 302 302 301 301 301 301 300 301 300 300 301 301 301 302 304 305 305 305
309 311 313 315 317 317 317 317 317 317 318 318 318 318 319 319 319 319 319 318 318 317 315 314 314 314 313 313 313 314 315 315 315 314 313 313 313 313 313 313 313 313 313 313 314 312 311 310 308 308 307 307 306 306 306 306 305 304 304 304 304 304 304 303 303 302 302 302 301 301 300 300 300 299 300 300 300 300 301 302 303 303 304 305 306
309 309 310 311 313 315 317 318 317 318 318 318 318 318 319 319 319 319 319 319 319 318 317 315 314 314 313 312 313 314 315 317 317 317 316 315 315 315 314 314 313 313 313 314 314 314 313 311 309 308 308 307 306 306 306 306 305 304 303 304 304 304 304 303 303 303 302 302 301 301 300 300 299 299 298 299 299 299 300 301 303 303 304 304 305
308 308 309 309 310 312 314 315 317 318 318 318 318 318 318 318 319 319 319 319 319 319 319 317 316 315 314 314 314 315 315 317 317 318 318 318 317 316 316 316 315 314 314 314 314 314 314 312 310 309 309 308 307 306 306 306 305 304 303 303 303 303 303 303 303 303 302 302 301 301 300 300 299 299 299 299 298 298 299 299 300 302 303 304 304
307 307 308 308 309 310 310 311 313 314 316 317 318 318 318 319 319 319 319 319 319 320 320 319 319 318 317 316 316 315 316 317 318 318 318 319 319 318 317 317 317 317 315 314 314 313 314 313 312 310 309 309 308 306 306 306 305 304 303 303 303 303 303 303 302 302 301 301 301 300 300 300 300 299 299 298 298 298 298 298 298 299 301 303 303
307 307 307 307 307 308 308 308 309 310 311 313 314 316 317 318 318 319 319 319 319 319 320 320 320 320 320 319 318 317 317 317 318 318 318 319 319 320 320 319 319 319 318 316 314 314 314 313 312 311 309 309 308 307 306 306 305 304 303 303 303 303 303 302 302 301 301 300 300 300 300 300 300 299 298 297 297 297 297 297 297 298 299 301 302
307 307 307 307 307 307 307 307 307 308 308 309 309 311 311 313 314 316 317 319 320 320 320 320 320 320 320 320 321 320 319 319 318 318 319 319 319 320 320 321 320 320 320 319 317 315 314 313 312 311 310 309 309 308 307 306 305 304 303 303 303 303 303 302 302 301 301 300 300 300 300 299 298 298 297 296 296 296 296 297 297 298 299 299 300
307 307 307 307 307 307 307 307 307 307 307 307 307 307 307 308 309 310 311 312 314 316 318 319 320 320 320 320 321 321 321 321 320 320 320 320 320 320 320 321 321 321 321 320 318 316 315 314 313 312 310 309 309 308 307 307 306 304 303 303 303 303 302 302 301 301 301 300 300 300 299 297 297 296 296 296 296 296 296 296 297 297 298 299 300
307 307 307 307 307 307 307 307 307 307 307 307 307 307 307 307 307 307 307 307 308 309 311 313 315 317 318 319 320 321 321 321 321 321 322 322 322 322 321 321 320 320 320 319 318 317 316 315 314 313 311 310 309 308 307 307 306 304 303 303 302 302 302 302 301 301 301 300 300 299 297 296 295 296 296 296 296 296 296 297 297 297 298 300 301
306 306 306 306 307 306 306 306 306 306 306 306 306 306 306 306 306 306 306 306 306 307 306 307 307 309 310 313 315 318 320 321 322 322 322 322 322 322 322 321 320 320 319 319 317 316 316 315 314 314 312 310 310 309 307 307 305 303 302 302 302 302 301 301 301 301 300 300 299 298 296 295 295 295 295 296 296 296 296 297 297 297 298 300 300
305 305 305 305 305 305 305 305 305 305 305 305 305 305 305 305 305 305 305 306 306 306 306 306 306 306 306 306 308 309 312 315 317 319 321 322 322 322 322 321 320 318 318 317 316 315 315 315 315 314 311 310 309 309 308 306 304 302 302 302 302 302 301 301 301 300 300 299 298 296 295 295 295 294 295 295 295 295 296 296 297 297 298 299 300
303 302 302 302 303 303 303 303 303 303 302 302 302 302 302 303 303 303 303 304 304 305 305 306 306 306 306 306 306 306 307 307 309 311 314 316 319 320 321 321 320 319 317 316 315 315 315 315 315 313 311 309 308 308 307 305 303 302 302 302 302 302 301 301 300 300 299 298 296 295 294 294 294 294 294 294 294 294 295 295 296 296 297 298 299
301 301 301 300 301 300 301 301 301 301 301 301 301 301 301 301 301 301 301 301 302 302 303 303 304 304 305 305 305 306 306 306 306 305 306 307 309 312 315 318 320 320 319 317 316 315 315 315 314 313 311 310 309 308 306 304 302 302 302 302 302 302 301 301 300 299 298 296 295 294 294 293 293 293 294 294 294 294 294 295 295 296 296 297 297
300 300 300 300 300 300 300 300 300 300 300 300 300 300 300 300 300 300 300 300 300 300 301 301 301 302 302 303 304 304 305 305 305 305 305 304 304 306 310 315 318 319 320 318 316 316 315 314 313 313 311 310 308 307 305 303 302 302 303 302 302 301 301 300 299 298 296 295 294 293 293 293 293 293 294 294 294 294 295 295 295 296 296 296 297
300 300 300 300 300 300 300 300 300 300 300 300 300 300 300 300 300 300 300 300 300 300 300 300 300 301 301 301 302 302 303 303 304 304 304 304 303 304 307 311 314 316 319 318 316 316 315 314 313 312 311 309 307 305 304 303 303 303 303 303 302 301 300 299 297 296 295 294 293 293 293 293 294 294 294 295 295 295 296 296 296 296 296 296 297
301 300 300 300 300 300 300 300 300 300 300 299 299 299 299 299 299 299 300 300 300 300 300 300 300 300 300 301 301 301 301 302 302 303 303 303 303 303 305 310 314 316 318 318 316 315 314 313 313 312 310 308 306 304 303 303 303 303 303 302 301 300 299 297 296 295 294 293 293 293 294 294 294 295 295 295 296 296 296 296 296 296 297 297 297
301 301 301 301 301 301 300 300 300 300 300 300 299 299 299 299 299 299 299 299 299 300 300 300 300 300 300 300 301 301 301 301 302 302 302 303 303 303 305 309 313 316 317 317 317 315 313 313 312 311 308 306 305 304 304 303 303 303 302 301 300 299 297 296 294 293 293 293 293 294 294 294 295 295 296 296 296 296 296 296 296 296 296 297 297
302 301 301 301 301 301 301 300 300 300 300 299 299 299 299 299 299 299 299 299 299 299 299 299 300 300 300 300 300 301 301 301 302 302 302 303 303 303 304 308 312 315 317 317 316 315 313 312 311 309 307 305 305 304 304 304 303 302 301 299 298 297 295 294 293 293 293 293 294 294 294 295 295 295 296 296 296 296 296 296 296 296 296 296 296
302 302 301 301 301 301 301 301 301 300 300 299 299 299 299 299 299 299 299 299 299 299 300 300 300 300 300 300 301 302 302 302 302 302 302 302 302 303 305 308 312 315 316 316 315 313 312 311 310 308 306 305 305 304 304 303 302 300 299 297 296 294 293 293 293 293 293 293 294 294 295 295 295 295 295 295 295 295 295 295 295 295 295 295 295
302 301 301 301 301 301 301 301 301 300 300 299 299 299 299 299 300 300 300 300 300 299 299 300 300 300 300 301 303 303 303 303 303 303 303 303 303 304 306 310 313 314 315 315 314 312 311 310 308 306 305 305 304 303 301 300 299 298 296 295 293 293 292 293 293 293 293 294 294 294 295 295 295 295 295 295 294 294 294 294 294 293 293 293 293
301 301 300 300 300 301 301 301 301 301 300 300 299 299 300 300 300 300 300 300 300 300 300 301 301 301 302 302 303 304 305 304 304 304 304 305 305 306 308 311 313 314 314 314 312 311 310 308 306 305 304 303 301 300 298 297 296 295 293 292 292 292 292 292 292 293 293 294 294 295 295 295 296 295 295 295 294 294 294 293 293 292 292 292 292
301 300 300 300 300 300 300 300 300 300 300 300 299 300 300 300 300 301 301 301 300 300 301 302 302 302 303 303 304 305 305 305 305 306 306 306 307 307 309 311 313 314 313 311 311 310 308 306 304 303 301 299 298 297 296 295 293 292 292 292 292 292 292 292 292 293 293 294 294 295 295 295 295 295 295 294 294 293 293 293 292 291 291 291 291
300 300 300 300 300 299 300 300 300 300 300 300 300 300 300 301 301 301 301 301 301 301 302 303 303 303 303 304 305 305 306 306 306 307 308 308 308 309 310 312 313 313 311 309 308 307 305 303 302 300 299 297 296 295 293 292 292 292 292 291 291 291 291 291 292 293 293 294 294 294 294 294 294 294 294 294 293 293 292 292 292 292 292 292 291
300 300 300 300 300 300 300 301 301 301 301 300 300 301 301 301 301 302 302 302 302 303 303 303 304 304 304 305 305 306 306 306 306 307 308 308 309 310 311 312 312 310 308 307 306 304 303 303 301 300 298 296 294 292 292 292 292 291 291 291 291 291 291 292 293 293 293 293 293 293 293 293 293 294 293 293 292 292 292 292 292 292 292 292 291
300 300 300 300 300 301 301 301 301 301 301 301 302 302 302 302 301 302 302 303 303 303 304 304 305 305 305 305 305 306 306 306 307 307 308 309 310 310 311 310 309 308 307 305 304 302 301 300 298 296 295 293 292 291 292 292 291 291 291 291 291 291 292 293 293 293 293 293 293 293 293 293 293 293 292 292 292 292 292 292 292 292 292 292 291
299 300 300 300 300 300 301 301 301 301 301 302 302 302 302 302 302 302 303 303 303 304 304 305 305 305 305 305 305 305 305 306 307 308 309 310 310 309 308 307 306 306 305 303 300 298 297 295 294 293 292 291 291 291 291 291 291 291 290 290 291 292 293 293 293 293 293 293 293 293 293 293 292 292 292 292 292 292 292 292 292 292 291 291 291
298 299 300 300 299 300 300 300 300 301 302 302 302 302 302 302 302 303 303 303 304 304 304 304 305 304 305 305 305 305 306 307 308 309 310 309 308 306 305 304 303 302 300 298 297 295 295 294 293 292 291 291 291 291 291 291 290 290 290 291 292 293 294 293 293 293 293 293 293 293 293 292 292 291 291 291 291 291 291 291 291 291 291 291 291
298 298 298 299 299 299 299 299 300 301 301 302 302 302 302 303 303 303 303 304 304 304 304 304 303 304 304 304 305 306 307 308 309 309 308 306 304 303 302 300 299 298 296 295 295 294 293 292 291 291 291 291 290 291 290 290 290 290 292 293 293 294 293 293 293 293 293 293 293 292 292 291 290 290 290 290 290 291 291 291 291 291 291 291 292
298 298 298 299 299 299 300 299 299 300 301 302 302 302 303 302 303 303 303 304 304 303 303 303 303 304 305 305 306 307 307 307 306 305 304 302 301 300 298 297 297 296 295 293 293 292 291 291 291 291 291 291 291 290 290 290 290 291 292 293 293 293 293 293 293 293 293 292 292 291 291 290 290 290 290 290 290 290 290 290 291 291 291 291 291
298 299 300 300 300 300 300 300 300 301 301 302 302 303 303 302 303 303 303 303 303 303 302 303 304 305 305 305 305 305 304 303 301 300 299 298 298 297 296 295 294 293 293 292 293 293 293 293 292 292 292 291 291 290 290 290 291 292 293 293 293 293 293 292 292 292 292 292 291 291 290 290 290 290 290 290 290 290 290 290 290 290 290 290 291
300 300 301 301 301 301 300 301 301 301 302 302 303 303 303 302 302 302 302 302 302 303 303 303 304 304 304 303 302 300 299 298 297 297 297 296 296 295 294 293 293 293 294 294 295 295 295 294 294 293 292 292 291 290 290 290 291 292 293 293 293 292 292 292 292 292 291 291 290 289 289 289 289 289 289 289 289 289 290 290 290 290 291 291 291
300 301 301 301 301 301 301 301 302 302 302 303 303 302 302 302 301 301 301 301 302 302 302 302 302 301 300 299 297 297 296 297 296 296 295 295 294 293 293 294 295 295 296 296 296 295 295 295 294 293 292 292 291 290 290 291 292 293 293 293 292 292 292 291 291 291 291 290 289 289 289 289 289 289 289 289 289 289 289 289 290 290 291 291 291
301 301 301 301 301 301 301 301 301 302 302 302 302 302 302 300 300 299 300 300 301 301 300 299 299 298 298 297 297 298 298 298 297 295 294 294 294 294 295 296 296 296 296 296 295 295 295 294 294 293 292 291 291 290 290 291 292 293 293 292 292 292 291 291 291 291 290 290 289 288 288 288 288 288 288 288 288 289 289 289 289 290 290 291 291
Wind_Speed
30 28 28 27 26 25 25 23 22 20 19 18 16 14 12 11 10 8 6 5 4 3 3 3 3 3 4 5 5 4 4 4 4 2 2 2 3 3 3 2 2 1 2 3 3 2 1 1 1 2 4 6 8 9 10 11 11 12 15 18 20 20 20 20 21 22 21 20 19 18 18 17 17 17 19 19 17 16 16 14 13 11 10 9 9
30 29 28 28 28 28 27 26 25 24 22 20 18 16 14 12 11 9 7 5 5 4 4 4 3 3 4 5 6 5 6 5 4 4 3 4 5 6 5 5 4 3 2 2 2 2 2 1 1 1 1 2 3 5 7 8 9 10 11 13 16 18 18 18 19 20 20 18 17 17 17 18 18 16 17 19 18 17 16 15 15 14 13 12 11
32 32 31 30 30 31 30 29 28 26 25 22 20 18 16 14 11 10 8 6 6 6 6 6 5 6 6 7 7 6 6 5 5 5 5 6 7 7 7 6 5 4 4 3 3 3 3 2 2 2 3 4 4 3 3 4 4 4 5 6 7 10 14 17 19 19 18 17 16 17 16 17 18 18 17 18 18 18 17 16 16 15 15 16 16
35 35 34 33 33 33 33 32 31 29 28 25 23 21 18 15 12 10 9 8 8 8 8 7 7 8 9 8 8 7 6 6 6 6 6 7 7 8 8 7 6 5 6 6 5 4 3 3 2 2 2 3 4 3 3 3 3 2 2 2 3 3 6 11 15 15 16 15 14 15 16 14 15 17 17 17 18 18 18 18 17 16 16 17 17
37 38 37 36 36 37 37 35 33 32 31 29 26 24 20 16 14 11 10 9 9 9 9 8 9 10 10 10 10 9 8 7 7 7 6 6 7 7 8 7 6 6 6 7 7 6 5 4 3 2 2 2 3 2 2 3 3 3 2 2 2 2 2 4 7 8 10 12 13 13 12 11 13 16 15 14 16 17 16 16 16 17 17 18 19
37 38 39 39 39 39 39 38 36 35 33 31 28 25 21 18 16 14 12 11 11 10 9 8 9 10 10 10 10 10 9 8 8 6 6 6 6 7 7 7 6 6 6 7 7 7 6 5 4 3 2 2 2 1 1 2 2 3 3 2 2 3 4 3 4 5 6 7 11 12 11 10 11 13 12 10 12 14 15 15 15 16 16 17 18
34 38 40 41 41 41 41 41 39 37 35 33 30 27 23 20 19 16 14 13 12 11 10 9 9 9 9 9 8 9 9 8 7 6 5 5 5 6 6 7 6 6 6 7 7 7 7 7 6 5 4 3 2 1 0 1 2 3 3 3 3 3 4 4 4 5 4 4 7 9 12 12 10 10 10 10 10 11 13 13 14 16 16 15 14
30 35 39 42 42 42 43 42 39 37 36 35 32 30 26 23 21 18 16 15 13 12 12 10 9 10 11 10 8 8 8 7 6 6 5 4 4 5 5 6 6 5 6 7 8 8 8 8 7 6 6 5 4 3 2 2 2 1 1 2 3 3 4 5 5 5 5 5 6 6 7 8 9 9 10 10 9 10 12 13 14 16 16 15 14
29 32 36 40 42 43 43 41 39 37 36 36 34 31 28 25 22 20 18 17 15 13 13 12 11 12 13 13 10 9 9 8 7 6 5 4 4 4 4 5 5 5 5 6 7 8 8 7 7 6 5 5 4 3 3 3 3 2 1 1 1 2 3 5 6 6 6 6 6 6 5 6 7 7 9 10 8 9 10 11 14 16 17 16 16
27 31 34 37 39 40 40 40 40 38 37 37 35 33 30 26 24 22 20 19 17 15 15 14 13 14 15 14 13 10 10 11 9 8 7 6 5 4 4 4 4 3 4 4 5 6 6 5 5 4 4 4 4 3 3 3 4 4 3 3 3 3 3 3 4 5 6 7 7 7 7 8 7 7 8 8 7 8 9 9 10 13 17 18 19
21 27 31 32 33 34 36 38 39 40 39 38 36 34 31 28 27 25 22 20 19 18 16 15 15 15 15 15 14 12 11 12 11 10 9 8 7 5 5 4 3 3 3 3 4 4 4 3 3 2 3 3 3 3 3 3 3 4 4 5 5 5 5 5 5 5 6 7 7 7 7 8 9 8 8 8 6 7 9 9 9 10 15 17 18
13 18 24 27 28 30 32 35 38 40 40 40 38 36 34 31 29 27 24 23 22 20 18 17 17 16 16 16 15 14 12 12 12 10 10 9 8 7 6 5 4 4 3 3 3 3 3 2 1 1 1 2 2 3 3 3 3 4 4 4 5 5 5 5 6 6 7 8 8 8 8 8 9 10 10 10 9 8 9 10 11 11 13 15 16
8 8 14 20 24 27 29 31 35 38 40 40 39 37 35 33 31 30 28 25 23 22 21 19 18 17 17 17 17 16 14 13 12 11 10 9 9 9 8 6 6 5 4 4 4 4 3 3 2 1 1 1 2 2 3 4 5 5 5 5 5 6 6 6 5 5 5 6 7 8 8 9 10 11 12 12 13 13 11 10 11 12 14 16 17
6 3 5 11 17 22 24 27 31 34 37 39 38 37 36 35 33 32 30 27 25 24 23 22 20 18 17 18 18 17 16 15 13 12 10 10 10 10 9 7 6 5 5 5 5 5 5 4 4 3 3 2 2 2 3 4 5 6 6 6 6 6 6 6 6 5 5 4 4 5 6 8 9 11 12 13 15 15 13 12 12 13 16 18 18
6 2 0 4 10 15 19 22 24 28 32 34 35 34 35 35 34 33 31 29 27 26 25 24 22 20 19 19 19 18 18 16 15 14 12 11 11 11 10 9 7 6 7 7 7 7 6 6 6 5 4 4 3 3 3 4 4 5 6 7 7 7 7 7 7 7 7 6 5 5 5 5 7 8 10 12 14 15 16 16 15 15 17 18 17
11 6 3 1 5 8 13 16 19 22 25 27 29 30 32 34 35 34 33 31 30 28 27 26 24 22 21 20 20 20 19 19 17 16 15 13 12 12 12 11 9 8 9 9 9 8 7 7 7 7 6 5 5 5 5 5 5 5 6 6 7 7 8 8 8 8 8 8 8 8 7 7 7 7 8 9 11 13 14 16 16 14 14 15 16
18 12 7 2 2 4 7 10 13 16 18 21 23 25 27 30 32 33 33 33 32 31 29 28 26 25 23 22 21 20 21 21 20 18 16 15 14 14 14 13 12 11 11 11 10 10 9 9 9 8 8 7 6 6 6 6 7 7 7 7 6 7 7 7 8 8 8 9 9 9 9 9 9 8 9 9 10 11 12 14 15 13 12 13 13
22 19 15 10 5 3 1 4 7 9 12 15 17 19 21 24 27 30 33 34 34 33 32 30 28 28 26 24 22 21 21 21 21 20 19 18 17 16 16 16 15 14 13 13 12 12 11 10 10 10 9 8 7 7 7 7 8 8 9 9 9 8 8 8 8 8 9 9 10 10 10 10 10 10 10 10 10 10 11 12 13 12 11 13 13
24 23 22 17 13 9 6 3 1 3 5 9 11 14 17 19 22 26 30 33 34 35 34 32 31 30 28 26 24 23 22 21 21 22 22 22 21 19 18 18 17 16 16 15 14 14 13 12 11 11 11 10 9 8 8 8 9 9 9 10 10 11 11 11 11 10 10 10 10 11 11 11 12 11 11 11 11 11 10 10 10 11 11 12 13
23 23 22 20 17 13 11 9 6 3 1 2 5 8 11 13 16 19 22 26 31 34 35 35 34 33 31 29 27 26 24 23 22 22 23 24 23 21 21 20 19 18 18 17 17 15 14 13 13 13 13 12 11 10 10 10 11 10 10 10 11 11 12 13 13 14 14 13 13 13 13 14 15 14 14 14 14 13 11 9 8 9 9 10 10
22 22 21 20 19 16 14 12 9 6 4 2 0 2 4 6 7 9 12 17 23 29 33 35 36 35 34 32 31 29 27 25 24 23 24 25 25 24 23 22 21 20 20 19 19 18 16 15 14 14 14 14 13 12 11 12 12 12 12 12 12 12 12 12 13 14 15 15 16 16 17 17 18 18 18 17 16 15 13 11 9 9 9 9 9
21 21 21 20 20 19 17 15 13 10 8 5 3 2 1 2 3 4 6 9 13 19 24 29 33 35 36 35 35 33 31 28 28 27 26 25 25 25 25 24 23 22 22 21 21 20 18 17 16 16 16 16 15 13 13 14 14 14 14 14 13 13 13 13 13 13 14 15 16 17 17 19 20 20 20 20 19 18 17 15 13 11 10 10 10
19 19 20 21 20 20 19 18 17 15 13 10 8 5 3 1 2 3 4 5 8 12 16 19 23 28 31 34 36 36 34 32 31 31 30 29 28 27 27 27 26 25 24 23 23 22 20 19 19 18 18 18 17 15 15 15 15 15 16 15 15 14 14 14 14 15 15 16 17 18 18 19 20 21 21 21 20 20 19 19 18 16 13 11 10
16 16 17 18 18 18 18 18 18 17 17 15 13 11 8 5 3 1 2 4 7 9 11 13 16 18 21 26 31 34 35 34 32 32 32 32 31 31 30 30 29 28 27 26 25 24 23 22 21 21 21 20 19 18 17 17 17 17 17 17 17 16 16 16 16 17 17 18 19 20 20 21 21 21 21 20 20 20 20 20 20 19 18 16 12
13 12 12 13 14 14 15 15 15 15 14 14 14 13 12 10 8 5 2 1 4 6 8 10 11 12 14 18 23 26 31 33 34 33 33 32 33 33 33 33 33 32 31 29 27 26 25 25 24 24 24 23 21 20 20 20 19 19 19 18 18 17 17 17 17 18 19 20 21 22 22 23 23 22 21 20 19 19 19 19 20 19 19 19 16
10 10 10 10 10 11 12 12 12 11 11 11 10 10 10 10 9 7 6 4 2 1 2 5 7 9 12 15 18 21 24 28 32 34 34 33 33 33 34 34 35 36 36 33 30 29 28 27 26 26 25 25 23 23 22 21 21 20 20 19 18 18 18 18 18 19 20 21 22 23 24 23 23 22 22 22 21 20 21 20 20 20 19 19 18
9 9 8 8 9 9 9 8 8 8 8 8 7 7 6 6 6 5 5 5 5 4 4 3 3 5 7 11 14 17 19 22 25 27 28 29 30 31 32 34 36 37 37 34 32 31 29 28 27 26 26 26 25 25 24 23 22 21 20 19 19 18 18 18 19 20 22 23 24 25 24 23 23 23 22 22 22 22 22 21 20 20 18 16 15
8 8 8 8 8 8 8 8 8 8 8 8 8 7 7 6 6 6 5 5 5 4 5 5 5 5 5 5 8 11 14 17 19 21 22 23 25 28 31 34 36 35 34 34 32 31 29 28 27 26 26 26 26 26 25 23 22 22 21 20 19 18 19 19 20 22 23 24 25 25 25 24 24 24 23 23 23 23 23 23 22 20 18 15 15
7 8 8 9 9 9 10 10 10 11 11 11 11 11 11 11 10 10 10 9 9 8 8 8 8 8 8 8 7 8 9 11 14 16 17 19 23 26 28 30 31 31 32 32 30 28 29 29 29 28 28 28 28 28 26 24 23 22 21 20 19 18 19 20 21 23 24 25 26 26 26 25 25 25 25 25 25 24 24 25 24 23 20 16 15
7 8 8 9 9 10 11 11 12 13 14 14 15 15 16 16 16 15 15 15 14 13 13 12 12 12 12 12 12 12 11 11 12 13 13 15 19 22 22 23 24 26 29 31 29 29 32 33 32 32 32 32 31 29 26 24 23 22 20 19 18 18 19 20 22 23 25 26 27 27 28 27 27 27 27 27 27 26 26 26 25 25 24 22 20
7 8 8 9 10 10 11 12 13 14 15 16 17 17 18 19 19 19 20 19 18 18 17 17 17 16 16 16 16 16 16 16 16 16 15 14 15 16 16 17 19 22 24 27 29 31 35 37 36 33 33 33 31 28 25 24 22 21 19 18 18 18 20 21 23 24 26 27 28 29 29 30 29 29 29 30 29 29 28 27 27 26 26 26 26
8 9 10 10 11 11 12 12 13 14 14 16 17 18 19 20 21 22 22 22 22 22 22 21 20 20 19 19 19 19 20 20 20 19 19 18 18 16 14 15 17 19 20 24 28 32 35 37 36 33 32 31 28 26 24 22 21 20 19 18 18 19 21 22 24 25 27 28 29 30 31 31 31 30 30 30 30 30 30 29 29 29 29 29 29
10 11 12 12 13 14 14 14 14 15 15 16 17 19 20 21 22 23 24 24 24 24 24 24 23 23 22 21 21 21 22 22 22 22 22 21 21 20 17 15 16 16 17 22 28 33 35 36 35 33 31 29 26 24 22 20 20 19 19 19 19 21 22 23 25 26 28 29 30 31 31 32 32 31 31 30 30 30 31 31 31 31 32 32 32
12 13 14 15 15 16 16 16 16 17 17 18 18 19 21 22 23 24 24 25 25 26 26 25 25 25 24 24 23 23 23 22 22 22 23 23 22 22 20 16 14 16 18 22 28 34 36 35 34 32 30 27 24 22 20 19 19 19 19 19 20 22 23 24 26 27 29 29 30 31 32 32 32 31 30 30 30 30 31 31 32 32 32 32 32
14 16 17 18 18 19 19 19 19 19 20 20 20 21 22 23 24 25 25 25 26 27 27 26 26 25 24 24 25 24 24 23 23 22 23 23 23 23 21 18 15 16 19 22 28 34 35 34 33 31 27 24 23 21 20 18 17 18 19 20 21 23 24 26 28 28 29 30 30 31 32 32 32 31 30 30 29 30 31 32 32 32 32 31 30
15 17 19 19 20 20 20 21 21 21 22 22 22 23 24 25 26 26 26 26 27 27 27 27 26 25 25 24 24 24 24 24 23 23 23 24 24 24 22 19 16 16 19 24 29 34 35 34 32 29 25 23 22 20 17 16 17 18 19 20 22 24 25 27 28 29 29 30 30 30 31 32 32 31 31 30 29 29 30 31 32 33 33 32 31
16 18 19 19 19 19 20 21 22 22 23 24 25 26 27 28 28 27 27 27 28 28 27 26 26 27 26 24 23 23 24 23 23 24 24 24 25 25 23 19 17 18 21 25 31 35 35 33 30 27 24 22 19 17 15 16 17 18 19 21 23 25 26 27 28 29 30 30 30 30 30 30 31 30 30 29 28 28 30 31 32 33 33 33 32
17 18 18 18 19 19 20 21 22 23 24 24 26 27 28 29 30 29 29 29 28 28 27 27 27 27 26 24 23 23 23 23 23 23 24 24 25 25 23 18 17 19 23 28 35 37 34 29 25 23 21 18 15 14 14 15 16 18 19 21 23 24 25 27 29 30 31 31 31 31 29 29 30 29 28 28 27 28 30 30 31 31 31 30 30
17 18 19 20 20 21 22 22 23 24 24 25 26 28 29 30 30 30 30 30 29 28 28 28 28 27 26 24 23 22 22 22 22 23 24 24 25 25 22 19 19 22 26 32 37 35 29 24 20 18 16 13 12 12 12 13 15 17 19 20 22 23 25 27 30 31 32 33 33 33 32 31 30 29 29 28 27 28 29 30 29 29 29 29 28
19 19 20 22 22 23 24 24 24 25 25 26 27 28 29 31 30 30 31 31 30 29 29 28 28 27 26 24 23 22 21 21 22 24 24 24 25 24 21 19 20 23 29 34 35 31 26 22 19 15 12 10 10 10 11 13 15 16 18 20 22 24 26 29 31 33 34 35 33 32 31 32 31 30 30 29 28 27 29 30 30 29 29 29 27
20 21 22 23 23 23 24 24 25 25 26 27 28 29 31 31 31 31 31 31 31 30 29 28 28 27 26 24 22 22 21 21 22 23 25 25 25 22 19 19 21 25 29 32 30 26 23 20 17 13 10 10 10 11 12 13 14 16 19 21 23 24 27 30 32 34 35 33 29 28 30 32 33 33 31 30 29 29 28 30 32 33 33 32 30
22 22 22 23 23 23 23 24 24 25 26 27 28 29 31 32 32 33 32 31 31 30 29 29 28 28 28 26 25 24 22 21 21 23 24 23 21 19 18 20 23 26 29 29 26 22 19 17 14 11 11 11 11 11 11 12 14 17 19 21 23 25 27 30 32 34 34 32 30 31 33 34 34 34 33 32 31 30 29 31 32 33 33 33 32
24 24 23 23 24 24 24 24 24 25 26 26 27 30 31 32 33 33 31 30 31 30 30 30 30 31 31 30 29 26 22 20 20 21 21 19 18 20 21 21 24 27 29 26 22 18 15 13 11 10 9 10 10 10 11 13 15 17 19 21 23 25 27 29 31 33 34 34 34 35 35 35 35 35 33 32 30 29 28 29 29 29 28 27 27
26 26 25 25 26 26 26 26 25 25 26 26 28 30 31 32 33 32 29 29 30 31 31 32 33 33 32 31 30 25 20 17 16 16 16 17 19 20 21 24 27 28 26 22 17 14 12 10 9 7 6 8 9 10 12 13 15 17 19 21 23 25 26 28 30 32 34 35 35 35 35 36 35 34 32 31 29 28 26 26 25 24 24 24 25
28 28 27 27 28 28 29 29 27 27 27 27 28 30 32 33 32 30 29 30 31 32 33 33 32 32 31 29 25 19 15 14 14 14 16 18 21 26 28 28 26 23 21 18 16 13 11 9 7 5 6 7 9 10 11 13 15 17 19 21 23 25 26 28 30 32 34 34 35 36 36 36 35 33 32 30 29 28 27 26 25 24 24 25 25
30 29 28 29 30 31 31 31 30 29 28 28 29 30 31 31 31 30 30 31 32 33 33 31 29 27 24 19 15 14 15 16 16 16 19 24 29 30 28 25 22 20 18 16 15 12 9 7 5 5 5 6 7 8 10 12 14 17 20 23 25 27 28 30 31 33 34 35 35 36 36 35 34 32 30 29 29 28 27 26 24 23 24 25 25
31 30 29 30 31 32 31 31 30 29 28 29 30 29 29 30 31 30 31 33 34 32 29 25 21 18 15 14 15 17 18 18 19 23 26 29 27 24 23 22 20 19 18 15 13 11 9 7 5 4 2 2 4 6 9 13 16 20 23 25 27 29 30 31 32 33 33 34 35 35 34 33 31 29 27 26 25 24 23 23 22 21 21 22 23
30 29 29 30 31 31 30 28 28 28 27 27 27 27 28 30 31 32 33 32 28 23 19 17 16 16 16 16 18 20 24 27 29 29 28 26 23 21 21 20 17 16 17 17 15 14 12 10 8 6 4 4 6 9 12 16 19 22 24 25 27 28 29 30 31 32 32 33 34 33 31 29 26 25 23 22 21 20 20 21 21 21 21 21 22
30 29 30 30 30 30 28 27 27 26 25 25 24 25 26 28 30 31 29 22 16 12 12 14 15 16 18 23 28 31 32 33 33 30 27 25 23 21 21 21 19 18 18 18 17 16 14 12 10 9 9 9 11 12 15 17 19 21 23 24 26 27 28 29 30 31 31 32 30 27 24 22 20 19 20 20 20 19 19 20 21 23 23 22 22
31 31 31 31 30 29 27 27 26 24 22 21 20 20 22 24 24 20 14 9 9 10 14 18 23 28 32 34 35 33 32 31 31 29 27 24 22 21 22 24 23 21 19 18 17 15 14 12 11 10 10 11 11 13 15 18 19 20 22 23 24 25 26 27 28 28 28 28 25 21 18 17 17 17 18 19 18 17 18 20 23 25 25 24 24
31 31 31 31 30 28 27 27 24 21 19 17 16 17 18 15 7 1 8 14 19 26 32 35 37 38 37 35 32 31 29 27 27 27 27 27 26 25 24 23 21 19 17 15 14 13 11 10 9 9 9 10 11 14 16 18 19 21 22 23 24 25 25 26 26 26 25 23 20 17 16 16 17 17 18 19 19 19 20 23 25 26 25 25 25
Wind_Direction
216 215 213 208 209 215 216 217 217 218 220 221 223 226 226 225 220 209 200 194 177 171 185 191 206 213 193 191 196 182 140 119 118 121 98 68 61 59 57 49 60 135 212 224 240 238 208 227 228 228 233 233 237 237 233 235 237 231 226 230 231 230 234 236 237 240 246 247 241 239 239 241 244 242 240 239 240 242 241 241 239 236 236 238 239
219 219 217 212 211 216 218 219 220 221 222 223 224 226 225 223 222 215 203 186 168 167 170 165 167 165 164 167 160 142 129 124 119 112 98 81 73 71 67 60 62 75 115 167 196 188 168 187 166 145 131 145 193 216 225 230 236 235 230 230 228 227 231 233 234 239 246 249 245 242 241 242 244 244 242 241 242 245 244 243 244 243 241 243 248
223 221 220 216 214 217 220 221 222 224 224 225 225 225 223 220 220 217 205 184 169 171 170 166 166 157 152 153 146 136 131 129 123 113 102 91 84 78 72 64 61 71 86 109 141 152 148 156 147 141 126 117 129 155 185 203 217 231 233 231 225 225 228 230 232 236 243 247 246 248 247 241 240 242 243 242 243 245 244 246 249 250 249 250 254
226 224 222 220 218 218 220 222 222 223 223 224 225 225 222 218 220 218 205 186 174 177 176 171 172 167 159 155 149 143 142 137 129 118 106 96 88 80 73 66 63 73 86 96 111 131 141 154 161 166 154 137 138 143 152 166 175 197 219 218 224 237 231 227 228 233 239 240 238 241 243 240 239 240 241 242 245 248 248 248 249 250 250 251 253
230 228 226 224 221 220 220 222 222 223 224 224 225 225 222 218 220 219 205 189 179 183 185 178 178 178 170 165 160 156 153 145 134 123 112 101 90 82 75 67 62 73 87 92 101 113 125 136 152 171 183 175 179 184 176 174 178 191 200 198 202 216 216 215 219 224 230 232 231 230 230 232 238 240 239 239 240 244 248 249 249 249 249 249 252
236 234 231 228 225 222 220 221 222 223 225 224 224 225 223 218 219 218 208 194 185 187 190 184 186 189 179 172 167 160 156 149 142 135 125 112 99 88 79 72 66 71 83 91 95 99 104 111 117 128 151 173 197 229 220 206 215 222 224 219 199 194 198 205 213 216 222 226 227 228 229 233 241 243 243 243 239 237 241 245 248 251 250 250 252
239 237 236 233 229 224 221 221 221 222 223 224 223 223 221 219 217 218 211 200 191 189 191 189 190 189 179 174 168 162 160 157 158 156 144 126 112 99 87 80 74 74 82 88 90 91 92 95 97 100 104 109 117 103 110 166 198 218 227 226 221 204 194 195 206 215 217 208 209 222 233 238 245 248 247 252 253 245 241 241 247 252 252 253 253
243 240 238 236 232 228 225 222 219 220 222 223 223 222 220 217 216 216 213 205 197 193 193 191 191 184 176 173 169 168 175 178 179 177 167 152 130 114 100 90 83 82 86 90 92 92 93 94 92 90 88 87 84 72 64 78 106 157 198 210 216 212 203 201 204 207 206 202 203 215 227 230 236 244 248 251 255 257 251 245 248 252 251 253 254
245 244 242 239 236 232 228 224 219 219 222 224 223 222 220 216 214 215 215 210 203 199 196 192 191 187 181 177 174 174 184 196 203 201 198 189 163 140 122 105 93 89 91 96 98 98 96 92 88 83 77 72 66 52 39 35 35 32 10 336 282 231 220 215 214 217 219 219 218 220 224 226 228 237 245 246 248 257 257 252 252 252 250 249 249
247 245 245 242 239 235 230 225 221 219 223 225 223 223 221 216 214 215 216 213 210 205 200 195 193 193 191 186 182 182 191 203 210 212 214 212 198 177 153 132 115 103 102 105 108 108 104 96 87 78 65 56 47 38 28 13 358 352 342 329 321 306 282 263 248 243 245 247 244 238 236 238 242 245 248 249 250 255 259 259 257 253 251 251 249
259 250 247 244 239 235 231 226 223 221 223 225 224 223 221 218 217 217 217 217 215 211 205 200 198 198 199 194 189 191 200 210 215 217 221 223 217 202 184 169 155 140 131 129 131 131 125 116 104 81 57 43 36 35 33 22 6 353 345 336 327 319 309 298 289 280 274 273 272 267 259 252 254 257 258 259 259 259 261 265 269 267 261 259 256
281 256 243 240 235 231 229 226 225 223 224 226 225 223 221 219 219 219 218 218 218 216 211 207 203 201 203 201 198 198 205 218 225 226 229 231 228 218 205 195 189 187 181 172 172 169 167 165 153 117 49 31 21 23 28 29 27 19 12 359 346 337 329 321 307 294 285 281 280 279 278 274 270 270 270 269 268 269 272 273 276 280 276 271 269
312 261 232 229 228 227 226 225 225 225 225 227 226 224 221 221 221 221 221 221 221 220 218 215 212 208 206 206 206 204 207 219 229 235 238 237 235 230 221 212 207 211 210 208 210 205 207 216 228 257 296 340 343 1 11 11 14 18 22 16 4 354 347 344 336 321 304 290 283 279 276 275 273 274 275 274 272 271 273 278 278 277 278 279 280
344 296 228 225 227 228 227 226 226 226 227 227 227 225 222 221 222 223 223 223 223 224 223 222 220 217 213 211 212 213 213 217 224 233 238 239 238 237 234 228 219 221 224 225 228 228 229 234 243 258 275 296 315 342 357 2 2 2 7 6 359 354 349 347 344 340 335 322 305 292 281 275 274 273 273 272 273 272 270 273 277 278 279 281 283
21 31 29 235 233 232 231 231 231 230 230 229 228 227 224 223 224 225 224 223 225 227 227 228 227 225 222 218 217 219 221 221 224 230 236 238 237 237 238 235 227 226 229 233 238 238 240 243 250 259 271 290 308 328 340 350 353 350 354 353 346 345 344 340 339 337 334 332 328 320 308 295 286 280 277 273 272 272 270 271 276 282 286 287 287
38 45 67 221 239 239 237 237 237 237 235 234 233 230 228 226 226 227 227 226 227 229 230 232 232 231 230 227 223 223 226 228 228 229 233 236 237 237 239 239 234 232 234 239 243 245 245 248 255 262 272 287 302 317 327 334 337 339 341 339 336 338 337 335 333 331 328 326 326 325 323 318 310 302 295 287 280 276 273 273 273 276 283 288 291
49 49 59 97 196 232 243 243 244 244 243 241 239 237 235 233 230 230 230 230 230 231 232 235 236 236 235 235 233 230 230 233 235 234 235 238 240 240 240 239 236 234 238 242 245 247 248 250 256 262 269 280 294 309 318 322 324 324 325 325 325 327 328 328 327 326 326 325 323 323 323 320 318 316 312 307 301 292 284 278 274 270 270 275 284
60 58 58 65 83 103 206 243 247 251 251 248 246 243 240 238 237 235 234 233 233 233 233 235 237 239 240 240 240 239 237 238 241 242 242 243 244 244 244 242 239 236 239 243 244 246 247 248 253 259 266 273 285 298 307 312 312 311 312 314 318 321 323 323 323 325 327 328 328 328 328 326 322 321 318 316 316 309 299 290 281 275 270 268 270
63 62 61 62 67 75 85 102 173 246 257 256 254 251 247 243 240 239 238 237 236 236 236 236 238 240 242 243 245 246 246 245 245 246 248 247 245 244 246 246 244 241 240 243 246 247 249 250 252 256 262 268 277 288 300 306 303 300 302 305 311 317 322 325 326 328 329 331 333 334 335 333 330 330 327 322 321 316 309 301 288 280 275 271 269
66 66 66 66 67 72 82 88 88 84 77 262 264 261 256 252 249 246 244 243 241 239 238 239 240 241 243 245 246 248 249 250 249 249 251 251 248 245 245 246 247 246 245 246 248 249 250 251 252 254 258 264 271 281 293 301 299 294 293 294 301 308 314 319 323 326 329 331 333 335 336 335 333 333 331 328 325 319 311 304 291 282 276 272 271
73 71 70 69 68 69 73 77 78 82 91 100 243 263 256 255 256 254 252 250 249 246 243 242 243 244 245 246 248 249 250 252 253 253 253 254 252 248 245 246 247 247 247 248 249 251 252 253 252 254 257 261 266 275 285 292 292 290 288 288 293 300 304 308 313 316 321 324 327 330 330 330 330 330 329 327 325 321 316 310 299 287 281 275 272
78 78 78 77 75 73 73 75 79 87 98 105 111 125 204 221 216 235 250 255 258 257 253 249 248 248 248 249 250 251 252 254 254 254 254 254 254 252 249 248 247 247 248 248 249 251 252 254 254 253 255 258 262 269 277 283 285 283 283 285 291 298 300 302 306 309 311 315 318 320 321 321 322 323 323 322 319 317 316 312 306 296 285 278 276
83 82 83 82 83 82 80 80 79 82 84 86 91 98 105 156 192 224 243 246 253 260 261 258 254 253 252 252 253 253 254 256 257 255 254 254 255 255 253 252 251 250 248 248 248 248 249 251 253 253 254 256 258 262 268 275 278 278 278 282 288 295 299 303 306 308 310 312 312 313 313 314 315 316 316 315 313 313 312 309 307 301 291 284 281
87 84 83 83 85 84 82 81 79 78 78 76 76 78 79 81 84 115 238 239 244 251 256 258 259 258 257 256 255 254 254 255 257 256 255 255 256 256 256 255 255 254 252 249 247 246 246 246 247 249 251 253 255 258 262 267 271 272 274 278 284 291 296 300 303 305 308 310 310 311 311 311 312 311 310 310 309 308 307 304 303 301 296 292 287
93 89 86 82 79 76 74 74 74 75 76 75 75 73 72 72 73 77 85 231 244 246 246 248 250 249 252 255 256 256 255 254 256 258 258 258 258 259 258 257 257 257 256 254 249 246 245 245 244 245 247 249 252 254 258 262 266 268 270 274 280 286 291 294 298 301 303 305 307 310 312 312 311 310 309 308 307 304 302 299 298 295 292 291 288
95 91 87 82 76 70 67 64 62 62 63 64 68 70 70 72 74 75 73 66 52 338 274 257 249 241 240 244 248 255 257 256 258 261 264 266 266 265 263 261 260 258 256 254 252 248 245 245 244 243 244 246 248 251 254 258 262 264 266 269 275 280 285 290 294 297 299 302 305 308 311 312 312 312 311 310 308 305 302 298 295 291 285 283 282
88 84 79 73 68 62 56 50 44 41 38 36 39 43 46 49 49 49 49 47 42 28 12 348 303 270 253 244 244 250 256 259 260 263 268 271 272 270 267 264 262 260 257 255 252 248 245 243 244 244 243 244 246 249 252 256 259 260 261 265 270 275 280 285 289 293 297 301 304 307 309 311 312 312 311 311 310 308 304 299 295 292 284 278 276
76 67 57 49 43 35 28 21 13 9 3 359 357 356 355 353 351 350 347 344 345 348 348 343 335 326 310 280 258 252 253 256 259 261 266 269 269 269 268 266 266 265 265 261 253 246 243 242 242 242 241 243 246 249 252 254 256 257 257 262 268 273 279 284 289 293 297 301 304 307 308 309 310 309 308 308 308 306 304 299 295 291 284 276 273
64 49 39 29 21 13 7 359 351 345 339 335 332 330 329 327 325 323 321 318 315 315 316 317 318 319 315 308 298 282 269 262 259 258 258 258 261 266 270 273 275 274 271 263 251 243 242 242 241 240 241 245 248 249 251 252 252 253 256 262 269 274 281 287 292 297 301 304 306 306 307 307 306 305 305 304 304 303 300 297 295 292 285 276 272
57 42 31 19 10 2 354 347 342 337 332 328 325 323 322 320 319 317 314 311 309 307 306 306 307 306 304 302 300 296 289 284 277 271 264 256 259 266 271 273 274 273 269 262 251 242 240 239 239 241 244 247 247 248 248 248 248 251 257 264 272 279 286 291 295 299 302 304 305 306 306 305 304 304 303 302 301 300 298 296 294 291 285 279 273
44 33 22 12 4 357 350 344 338 332 328 324 321 319 318 316 315 314 313 312 311 309 306 304 302 299 297 296 295 293 290 288 287 287 285 278 273 273 272 268 266 267 266 261 251 242 237 235 237 241 244 244 243 242 242 243 246 252 259 268 276 283 288 293 296 300 302 304 305 306 305 305 305 305 304 302 301 300 297 295 291 288 284 279 275
21 14 8 3 358 354 350 345 338 332 327 322 318 316 314 313 311 310 310 310 310 310 308 306 304 301 299 295 293 291 289 287 287 287 288 288 285 280 274 266 264 265 263 256 247 240 236 235 235 237 239 239 239 238 238 240 246 255 264 274 280 285 289 293 297 300 303 305 306 306 306 305 305 305 303 301 301 299 297 294 291 287 283 279 276
4 359 355 353 350 347 345 342 337 332 327 323 320 317 313 311 309 308 308 308 309 309 307 306 306 304 303 301 297 293 289 288 287 285 284 283 283 281 276 268 266 267 261 252 242 234 233 234 232 231 232 233 233 233 235 241 250 260 268 276 281 285 290 294 298 302 305 305 305 306 306 305 305 304 303 301 300 299 296 294 291 288 285 282 280
350 348 346 344 342 340 338 336 332 328 325 322 321 317 314 311 309 308 308 308 307 306 305 305 306 306 305 304 300 296 291 288 285 282 280 277 276 277 276 271 265 261 256 248 238 231 230 230 228 227 228 228 228 230 236 244 253 262 271 277 283 288 292 296 300 303 304 304 305 305 305 304 304 303 302 301 299 297 294 292 289 286 284 283 281
338 337 337 337 336 333 331 330 327 325 323 321 319 316 313 311 311 310 309 309 307 305 303 303 304 305 305 302 298 294 290 287 283 280 276 274 272 271 273 270 261 255 251 244 236 230 227 224 222 222 223 223 224 229 236 246 256 266 274 280 285 289 293 297 300 302 303 303 304 304 304 303 303 301 300 299 297 295 292 289 287 284 282 280 278
329 329 330 330 329 328 325 323 322 321 321 320 318 315 313 312 312 311 310 309 307 304 304 303 302 302 301 298 293 289 286 284 282 278 274 271 269 267 267 265 259 253 249 243 235 229 223 220 218 217 217 218 222 229 239 251 262 270 276 282 286 290 295 298 300 301 302 302 303 304 303 302 301 300 300 298 296 293 290 288 285 283 281 279 276
321 322 323 324 322 320 318 317 316 316 318 318 316 314 313 312 311 311 310 308 305 304 305 304 300 295 294 293 289 285 283 281 279 276 271 268 267 265 264 259 252 248 245 238 230 224 220 217 214 211 212 216 224 234 246 257 265 272 279 284 288 293 297 299 301 302 302 302 303 303 302 301 300 301 300 299 297 294 290 288 285 283 281 278 276
318 317 317 316 315 313 312 312 312 313 316 317 315 313 312 311 311 311 309 306 304 304 303 299 293 290 290 289 286 283 280 277 273 271 268 265 263 262 259 252 245 245 244 235 225 218 213 209 206 206 211 218 227 239 250 260 269 277 283 287 292 296 300 302 304 305 305 305 304 304 303 301 301 302 302 300 297 295 292 289 286 284 281 279 278
312 313 312 311 310 309 308 308 308 311 314 314 313 311 310 309 309 309 306 304 304 303 300 294 291 290 289 286 282 280 277 273 267 263 261 260 258 256 252 244 239 241 239 230 219 210 202 197 198 204 211 218 230 243 255 267 278 284 289 293 298 303 306 308 308 308 308 308 307 307 306 305 303 302 300 298 296 293 291 289 286 283 280 279 280
307 307 307 307 306 306 305 305 306 309 312 312 311 309 307 307 307 305 302 302 303 301 298 294 292 290 287 283 280 278 275 272 265 257 254 253 251 247 242 235 234 237 233 220 208 199 193 190 192 197 206 220 235 250 265 276 284 290 295 300 305 308 311 311 311 311 311 310 310 310 309 309 308 306 302 300 297 294 292 290 287 281 278 279 281
305 306 307 306 305 303 302 303 305 307 309 309 308 306 306 306 305 301 299 301 302 300 297 294 292 288 285 283 280 276 274 273 267 256 250 248 245 238 229 228 233 232 221 205 191 184 182 182 185 193 209 231 247 258 269 279 286 292 297 302 306 309 312 312 311 312 312 311 311 310 310 311 312 311 309 307 304 300 297 291 286 281 279 279 279
302 305 307 307 305 303 302 303 305 306 306 306 305 304 305 305 301 297 298 301 302 300 296 292 289 288 286 284 281 277 273 271 266 255 248 244 237 227 224 229 227 215 199 186 178 177 179 182 191 205 224 241 251 259 270 281 289 293 298 302 305 309 311 311 310 311 311 311 310 310 310 312 313 313 313 311 307 303 297 290 286 284 284 283 281
301 301 304 306 304 302 303 304 305 306 305 305 304 304 305 302 297 295 297 299 300 299 295 291 288 287 285 283 281 278 271 265 260 251 241 234 227 223 222 217 202 189 181 176 175 178 181 185 194 206 225 242 253 266 277 284 289 293 298 302 306 309 311 311 310 310 311 311 311 311 311 312 312 312 311 309 306 301 295 290 288 287 287 286 283
301 299 301 303 302 301 302 303 303 305 306 305 306 306 303 298 295 294 295 296 297 296 292 289 286 284 283 281 279 274 263 251 243 234 228 227 222 209 194 182 175 171 170 169 167 170 176 180 185 198 225 249 265 276 282 287 291 296 301 306 309 311 312 312 311 311 312 312 311 311 310 311 312 312 312 311 308 304 299 296 294 292 290 286 280
300 299 301 302 301 301 302 301 301 304 305 306 307 305 300 296 296 295 293 292 292 290 288 286 283 280 279 277 271 258 236 222 217 219 223 215 194 175 164 161 160 158 157 157 159 166 173 173 173 192 227 249 265 275 282 290 297 303 309 313 315 316 316 316 315 314 314 314 314 314 314 316 317 317 317 315 312 308 306 303 300 296 292 286 281
298 299 300 299 298 298 299 299 300 302 305 307 307 302 298 296 295 293 291 291 291 289 285 282 278 274 271 262 242 218 210 211 210 205 194 177 164 157 152 150 149 149 150 153 154 156 159 159 164 189 220 244 264 280 293 304 311 318 323 324 324 323 322 321 320 319 318 318 318 317 318 319 319 319 318 316 312 310 309 306 303 299 294 288 285
297 298 298 298 297 297 297 297 298 300 305 307 304 300 297 296 296 296 296 297 294 288 281 274 265 255 243 227 214 206 199 188 174 164 157 151 149 148 145 143 145 147 145 142 141 138 136 136 141 151 193 261 295 312 323 329 331 331 331 330 328 326 325 324 323 321 320 319 318 318 319 320 320 321 320 317 313 310 309 307 305 301 295 289 286
297 297 297 298 298 297 296 295 295 299 305 306 302 299 298 298 298 300 300 296 290 280 265 252 239 225 214 202 188 172 157 145 139 137 136 136 138 141 140 138 136 133 129 126 124 120 114 109 103 91 62 25 4 352 346 342 338 335 333 331 329 327 325 324 323 321 321 320 319 319 320 321 321 320 318 315 311 308 306 305 303 300 294 289 285
295 295 296 297 297 296 294 292 293 299 304 303 299 297 297 298 299 301 301 293 278 256 233 221 209 192 174 156 144 137 133 130 129 129 130 132 134 134 130 125 121 118 117 115 111 105 97 88 77 61 42 26 12 359 350 343 339 336 333 331 329 327 325 324 323 322 321 320 319 320 321 321 320 318 316 313 311 308 305 304 304 304 301 296 290
292 293 294 294 295 294 292 290 292 298 302 299 292 289 294 300 303 304 297 269 229 194 168 154 146 139 135 132 130 128 129 129 128 128 130 130 129 126 122 120 118 115 110 103 96 89 80 69 58 44 31 20 7 356 349 345 343 340 337 333 330 327 326 324 323 322 321 320 320 321 321 321 320 317 316 313 310 307 306 307 309 310 307 302 296
292 293 292 292 292 290 289 289 291 294 295 286 273 279 296 307 310 150 141 143 139 132 127 125 125 126 127 128 129 128 128 127 126 126 126 125 124 122 119 115 111 106 101 93 85 78 70 59 48 35 23 13 3 355 351 349 348 345 341 338 334 330 328 327 326 325 324 324 324 323 321 321 321 319 319 317 315 312 312 314 315 313 310 307 302